Orbital Elements at Epoch 2459000.5 (2020-May-31.0) TDB
Reference: JPL 18 (heliocentric ecliptic J2000)
Element | Value | Uncertainty (1-sigma) | Units |
e | .09909376985024888 | 4.2694e-08 | |
a | 2.529049971677026 | 1.6277e-08 | au |
q | 2.278436875843885 | 1.0306e-07 | au |
i | 10.94861945351371 | 5.6091e-06 | deg |
node | 138.3191464232404 | 2.5138e-05 | deg |
peri | 70.24077487350426 | 3.9556e-05 | deg |
M | 39.95447515312019 | 3.0534e-05 | deg |
tp | 2458837.458759042929 (2019-Dec-19.95875904) | 0.00012458 | TDB |
period | 1469.043117688454 4.02 | 1.4182e-05 3.883e-08 | d yr |
n | .2450574769830184 | 2.3658e-09 | deg/d |
Q | 2.779663067510168 | 1.789e-08 | au |
|
| | Orbit Determination Parameters
Additional Information
|